Location: Unspecified
(46.0725°N, 13.7344°E)
Time: 11:33:58
(UTC+02:00)

Cosmos 2058 - Pass Details

Date: 18 June 2024
Orbit: 545 x 564 km, 82.5° (Epoch: 16 July)

Event Time Altitude Azimuth Distance (km) Brightness Sun altitude
Exits shadow 03:06:11 - 147° (SSE) 2,078 5.5 -15.4°
Reaches altitude 10° 03:06:54 10° 141° (SE) 1,837 5.3 -15.3°
Maximum altitude 03:10:07 23° 88° (E) 1,205 4.9 -15.1°
Drops below altitude 10° 03:13:23 10° 35° (NE) 1,860 6.9 -14.8°
Sets 03:15:53 0° 22° (NNE) 2,765 8.2 -14.6°
